Wind_Speed
100 96 86 90 91 92 88 80 78 78 79 75 67 61 67 72 63 59 59 72 80 87 89 91 88 88 87 85 82 80 73 69 66 62 59 56 53 49 47 46 46 44 44 44
89 85 87 88 88 90 87 78 75 76 78 70 68 57 63 66 59 61 61 69 79 89 93 90 89 89 89 87 84 82 76 71 68 65 62 58 53 50 48 48 48 45 44 46
88 81 85 85 86 89 88 81 82 76 73 67 61 54 60 61 60 59 60 66 79 88 93 91 90 88 93 91 83 83 79 75 71 67 64 59 54 53 53 53 48 44 45 44
78 78 82 85 83 89 83 84 81 76 68 60 58 49 50 57 57 61 65 68 77 86 88 88 92 91 97 92 87 86 82 77 74 70 65 61 59 57 55 51 46 47 47 43
72 76 78 81 82 86 79 79 72 70 60 57 50 44 42 56 57 61 67 69 78 89 90 89 90 88 90 93 87 88 86 82 78 74 70 66 63 59 54 53 53 50 48 44
76 72 73 74 79 81 76 73 68 61 56 42 50 54 45 56 61 68 67 69 78 90 92 91 92 91 92 92 94 94 91 86 82 78 74 69 65 59 56 55 55 56 48 47
78 69 68 69 71 72 71 66 63 57 49 42 58 48 48 55 64 66 65 72 76 87 91 92 94 94 97 95 93 91 91 88 83 78 76 73 69 64 61 59 59 57 55 54
75 68 68 70 68 71 68 61 52 51 47 51 50 37 42 60 62 59 61 69 76 83 91 95 94 96 100 91 92 91 92 90 84 79 78 76 73 70 67 63 63 61 57 58
73 65 67 67 71 64 59 50 58 52 49 49 42 40 55 62 63 64 64 71 74 82 92 95 94 98 95 92 90 92 91 88 85 81 80 78 74 71 71 70 67 68 63 65
76 70 67 70 63 57 56 57 52 45 42 42 44 50 59 66 63 59 61 67 69 82 97 100 98 100 96 102 97 88 84 82 82 78 78 77 75 73 74 72 70 70 69 68
74 73 70 64 59 63 59 53 50 46 41 44 50 57 64 63 64 57 57 62 63 73 98 100 100 106 104 104 100 84 83 85 83 78 73 71 72 74 71 71 70 71 73 73
74 74 71 65 67 63 58 53 48 42 46 51 57 61 64 63 61 56 57 59 60 69 103 104 106 110 107 108 102 97 88 83 83 81 80 75 73 71 71 76 73 73 74 78
68 75 70 70 65 61 57 54 49 47 48 45 49 60 62 58 59 56 53 52 55 68 104 106 109 114 113 109 103 96 91 85 84 84 81 79 75 75 69 72 74 76 80 83
69 71 65 66 56 50 51 50 46 45 46 54 51 60 59 60 60 48 46 44 52 69 100 108 115 118 113 107 102 99 96 87 81 81 82 77 76 79 76 76 77 78 79 80
65 65 65 63 55 47 47 45 44 46 51 47 60 63 65 63 52 49 51 45 50 68 99 112 117 116 113 107 105 102 95 91 88 80 80 80 78 81 76 75 75 76 76 78
61 64 64 60 54 49 47 48 51 52 54 55 57 58 62 62 52 53 52 43 53 66 91 119 122 119 112 107 107 92 93 93 86 84 82 85 84 79 80 81 76 79 81 84
58 62 63 57 52 50 53 55 55 54 55 58 59 64 64 51 52 52 52 47 56 68 93 121 119 109 112 113 102 97 93 90 88 83 84 85 84 84 81 85 83 80 83 87
53 60 61 57 54 54 56 55 53 53 56 58 62 63 57 50 52 49 49 45 50 69 95 122 118 116 114 107 102 103 94 88 82 87 88 86 88 86 85 86 90 84 87 88
50 56 59 58 55 56 58 55 55 55 56 57 61 56 51 45 45 42 47 45 51 67 85 124 120 113 108 102 103 99 97 92 92 88 85 83 89 86 85 88 91 93 92 93
45 58 57 56 58 59 55 58 57 56 57 59 59 55 48 43 42 42 40 42 52 64 79 121 120 113 115 101 92 89 94 91 90 91 90 88 89 84 84 86 89 88 96 97
42 53 59 60 60 59 59 60 58 59 55 56 57 53 46 44 41 37 34 40 54 60 72 112 124 113 105 98 90 92 92 88 94 93 93 94 88 86 88 86 89 93 97 98
49 60 63 61 59 62 61 60 61 58 55 57 55 49 42 39 36 33 30 40 53 57 73 86 124 119 113 100 99 101 93 96 92 95 101 94 92 96 93 95 94 97 102 101
49 53 60 58 59 58 57 61 59 56 54 55 53 47 43 38 31 29 30 43 52 56 63 72 110 122 113 109 102 103 104 99 101 107 102 100 109 95 98 100 103 108 106 105
42 54 63 57 57 55 58 59 56 55 53 53 50 44 41 36 29 25 31 46 55 60 61 70 101 118 117 117 109 109 106 108 98 103 104 102 104 104 104 101 108 107 105 112
54 66 66 61 56 58 61 59 57 56 54 50 49 42 38 33 26 21 29 48 58 60 62 63 85 99 117 113 116 113 113 114 102 100 93 105 111 109 108 109 112 113 113 104
62 70 67 62 56 58 56 55 57 58 54 50 46 40 35 30 25 22 26 43 59 61 61 64 67 84 99 112 107 99 114 113 109 94 83 95 96 101 101 99 101 109 114 114
Wind_Direction
265 264 266 265 260 258 260 260 257 256 257 256 253 248 251 247 242 234 225 224 220 219 219 216 215 218 219 217 219 223 223 226 226 226 229 230 230 233 235 239 242 245 247 249
263 263 261 259 256 256 258 258 257 256 255 251 251 246 248 249 241 234 227 224 221 219 220 217 215 216 218 217 217 221 222 225 227 227 230 231 232 235 237 239 242 245 251 253
261 260 259 258 256 255 255 256 254 253 252 250 248 244 248 245 239 235 230 224 221 220 218 217 214 215 218 216 217 219 220 225 226 227 229 231 233 234 237 240 245 249 249 252
258 258 256 256 255 253 253 254 252 251 248 246 246 238 245 243 235 232 228 221 218 220 221 220 214 215 218 217 216 219 219 224 228 228 229 232 234 236 240 244 244 244 247 253
258 254 255 253 253 254 253 252 252 249 246 240 244 234 239 238 231 227 227 221 216 217 218 217 214 216 218 218 214 217 219 221 226 229 228 231 234 237 240 243 244 245 248 251
257 252 251 251 249 252 252 252 250 246 243 236 240 229 225 234 227 224 226 223 217 215 217 215 214 214 216 217 215 217 218 221 225 227 229 230 233 236 238 241 242 246 245 248
252 253 250 249 248 248 249 248 246 242 234 227 238 222 218 231 230 223 223 222 219 216 216 214 210 213 215 217 219 217 219 222 225 229 231 233 234 235 238 241 245 247 247 246
249 249 249 247 246 243 242 242 243 241 231 229 229 217 219 225 227 224 225 223 221 219 215 214 212 210 215 217 218 216 219 221 224 228 231 234 237 239 241 243 244 247 246 247
249 245 243 244 242 242 241 241 240 231 228 227 218 213 219 226 223 218 221 218 219 221 214 212 213 212 214 215 218 217 217 221 225 227 231 233 235 239 242 244 246 249 249 249
242 240 239 239 240 240 239 234 231 226 226 220 214 217 218 224 227 221 223 221 222 218 215 212 210 211 212 211 216 218 216 222 225 226 230 232 234 239 242 246 248 248 248 249
238 237 237 237 235 234 232 229 227 222 216 209 211 216 222 227 228 224 224 223 226 219 216 213 209 209 212 211 215 208 216 221 222 223 225 230 235 238 242 243 244 245 247 248
235 234 232 230 230 229 227 226 224 216 212 206 208 214 220 223 226 226 225 225 224 217 212 207 206 207 208 211 212 209 211 223 220 223 225 224 225 231 239 242 240 243 245 246
231 233 229 228 225 223 221 221 217 211 208 209 212 216 222 223 227 224 225 227 225 213 209 206 207 207 208 212 215 216 213 219 222 225 226 227 225 227 233 236 239 245 250 253
227 228 226 227 229 227 221 219 215 209 206 208 206 214 217 220 226 225 226 233 223 210 208 206 205 208 211 214 214 214 217 218 221 227 229 229 227 228 233 238 242 248 252 256
226 225 223 220 218 215 217 216 209 206 204 204 208 210 219 222 224 224 223 228 220 209 206 204 205 208 209 212 215 217 218 219 225 228 232 230 230 230 234 238 245 250 254 256
220 220 219 216 212 203 206 204 201 200 202 204 209 209 219 220 218 224 221 223 214 209 206 202 204 207 207 209 215 215 218 221 225 228 232 232 232 237 236 238 246 250 252 255
216 216 214 206 205 198 200 200 199 197 199 202 204 205 219 221 220 225 224 223 215 209 204 200 201 207 209 212 213 214 216 219 225 227 229 236 235 239 238 241 246 252 254 258
214 211 209 200 198 195 198 199 196 197 199 201 206 212 220 217 220 224 224 227 218 213 204 200 204 206 211 212 214 219 223 222 224 230 231 238 239 240 244 246 247 255 257 260
208 206 204 196 193 195 197 194 194 198 200 201 208 216 219 220 225 229 227 228 221 213 206 202 204 207 207 211 216 219 222 221 224 233 236 239 244 245 248 251 251 255 257 261
203 201 197 188 191 194 192 192 191 198 198 200 208 214 215 217 223 224 225 232 219 209 207 203 203 205 210 211 211 215 221 224 227 228 234 238 243 247 250 253 258 261 261 263
197 198 189 187 191 192 190 190 192 199 199 201 209 213 212 218 221 224 228 225 214 208 205 205 204 206 209 211 213 218 221 226 229 232 236 239 246 248 251 253 257 262 263 265
191 192 184 183 191 192 189 188 194 196 195 201 208 212 215 220 223 223 230 222 211 208 206 206 207 208 209 214 215 220 221 224 228 228 232 238 245 248 251 256 257 260 265 267
191 186 177 181 194 190 187 191 193 194 196 200 206 210 214 218 222 222 229 216 203 205 203 207 207 210 209 212 214 221 222 225 230 232 235 240 243 250 250 256 257 259 263 265
179 173 172 183 193 187 189 193 191 192 196 198 207 208 216 220 218 221 221 213 203 203 209 206 209 210 212 213 218 222 223 225 231 235 239 240 246 248 253 254 256 263 264 265
171 172 175 185 189 185 189 190 189 192 196 195 204 208 217 219 219 223 218 210 204 204 207 206 212 213 216 218 220 224 227 229 235 238 241 240 246 250 253 257 258 261 266 264
172 173 178 185 185 186 189 188 189 192 196 195 202 207 214 218 221 224 225 213 207 207 209 211 209 217 218 222 225 227 230 230 233 236 238 242 246 250 253 257 258 260 262 267
Height
10427 10424 10453 10451 10450 10455 10458 10469 10478 10481 10481 10487 10498 10511 10505 10506 10524 10535 10543 10553 10562 10577 10584 10596 10608 10619 10632 10645 10658 10672 10681 10688 10697 10705 10710 10715 10722 10730 10735 10739 10742 10745 10749 10752
10400 10412 10417 10416 10424 10429 10434 10445 10456 10459 10459 10468 10474 10492 10489 10496 10511 10516 10524 10536 10547 10555 10566 10581 10595 10606 10618 10631 10644 10657 10668 10676 10684 10693 10699 10707 10714 10720 10724 10727 10730 10735 10740 10742
10370 10390 10386 10392 10399 10405 10411 10420 10427 10434 10439 10448 10459 10473 10474 10481 10492 10504 10512 10520 10531 10542 10551 10561 10578 10591 10601 10616 10631 10644 10655 10663 10671 10679 10687 10698 10703 10707 10710 10714 10722 10727 10729 10731
10348 10363 10363 10365 10375 10378 10388 10392 10400 10408 10419 10432 10439 10459 10464 10462 10476 10481 10485 10496 10512 10524 10541 10555 10563 10572 10587 10603 10616 10629 10641 10651 10660 10667 10678 10685 10689 10694 10700 10709 10713 10714 10717 10721
10335 10335 10338 10342 10354 10350 10372 10370 10380 10388 10402 10411 10429 10439 10446 10438 10456 10462 10462 10474 10490 10500 10514 10535 10551 10566 10578 10588 10601 10613 10624 10635 10644 10655 10663 10671 10677 10683 10692 10697 10699 10702 10707 10710
10303 10308 10313 10325 10328 10330 10346 10352 10359 10370 10383 10406 10411 10412 10422 10424 10431 10432 10446 10460 10469 10477 10494 10514 10529 10543 10557 10571 10583 10597 10609 10621 10630 10641 10649 10657 10664 10673 10680 10683 10686 10692 10696 10698
10274 10286 10293 10300 10306 10315 10325 10334 10341 10354 10370 10392 10379 10401 10407 10409 10407 10418 10429 10439 10451 10464 10480 10491 10504 10522 10535 10551 10570 10583 10598 10611 10620 10630 10640 10646 10654 10661 10667 10671 10675 10679 10684 10686
10249 10265 10272 10277 10285 10290 10304 10316 10332 10341 10356 10362 10372 10397 10396 10377 10397 10411 10417 10425 10435 10450 10466 10479 10490 10504 10520 10539 10555 10567 10582 10592 10605 10616 10625 10633 10643 10649 10654 10658 10663 10667 10671 10673
10230 10246 10251 10260 10259 10278 10294 10309 10307 10321 10337 10349 10365 10377 10368 10361 10372 10384 10392 10405 10419 10433 10447 10464 10482 10495 10509 10524 10541 10556 10568 10578 10591 10601 10610 10620 10629 10635 10639 10644 10650 10656 10659 10658
10207 10220 10230 10234 10252 10269 10277 10282 10293 10312 10325 10339 10350 10351 10347 10345 10358 10373 10381 10394 10403 10413 10424 10436 10454 10475 10497 10513 10524 10540 10553 10563 10574 10585 10595 10605 10614 10621 10626 10631 10637 10643 10643 10644
10188 10200 10209 10225 10241 10243 10255 10269 10281 10295 10311 10322 10328 10328 10326 10339 10346 10361 10368 10380 10391 10400 10414 10429 10440 10461 10482 10498 10513 10528 10538 10549 10561 10571 10581 10592 10602 10609 10614 10618 10623 10626 10628 10629
10164 10180 10191 10208 10212 10227 10242 10255 10270 10288 10296 10301 10305 10310 10313 10325 10331 10342 10351 10362 10371 10382 10398 10413 10431 10450 10466 10480 10498 10515 10528 10537 10548 10555 10565 10575 10585 10595 10601 10603 10607 10609 10612 10613
10151 10158 10174 10181 10199 10214 10230 10243 10258 10271 10282 10295 10303 10297 10305 10316 10318 10328 10342 10353 10360 10368 10387 10401 10420 10442 10463 10472 10486 10505 10517 10527 10537 10544 10553 10563 10573 10579 10583 10588 10592 10594 10597 10600
10128 10144 10163 10173 10196 10213 10225 10237 10252 10265 10274 10274 10289 10285 10296 10298 10306 10328 10337 10342 10349 10357 10378 10394 10410 10430 10450 10463 10478 10495 10504 10516 10525 10533 10544 10552 10559 10564 10569 10575 10579 10581 10583 10586
10113 10132 10147 10161 10180 10202 10215 10231 10244 10254 10258 10272 10265 10273 10277 10289 10307 10316 10320 10329 10334 10345 10367 10384 10403 10422 10436 10450 10466 10482 10495 10507 10514 10524 10532 10540 10545 10552 10558 10562 10565 10567 10569 10570
10098 10116 10135 10152 10171 10191 10203 10215 10225 10236 10246 10254 10262 10271 10269 10280 10298 10301 10309 10318 10323 10333 10349 10370 10389 10406 10428 10442 10457 10476 10488 10497 10506 10514 10520 10525 10533 10538 10544 10547 10550 10553 10555 10556
10087 10104 10122 10144 10163 10180 10185 10198 10209 10223 10235 10241 10252 10245 10258 10281 10288 10291 10299 10307 10312 10320 10334 10356 10379 10399 10418 10435 10454 10466 10473 10486 10496 10501 10507 10513 10522 10526 10531 10534 10537 10540 10541 10541
10081 10096 10116 10136 10153 10164 10175 10190 10205 10216 10224 10233 10237 10240 10255 10268 10274 10282 10293 10300 10305 10316 10329 10350 10372 10392 10407 10428 10444 10456 10470 10484 10488 10491 10497 10502 10507 10513 10517 10520 10523 10524 10525 10525
10075 10094 10111 10129 10146 10156 10167 10186 10196 10203 10214 10225 10228 10241 10252 10265 10270 10278 10285 10291 10296 10305 10318 10341 10362 10383 10401 10417 10432 10446 10457 10469 10476 10481 10486 10491 10495 10501 10504 10506 10508 10509 10510 10509
10070 10082 10105 10127 10135 10143 10165 10174 10184 10191 10202 10210 10218 10230 10244 10255 10260 10265 10275 10282 10289 10298 10312 10331 10354 10374 10393 10411 10423 10436 10448 10457 10465 10470 10474 10478 10482 10487 10490 10491 10492 10495 10493 10493
10067 10082 10098 10114 10124 10136 10152 10165 10175 10180 10198 10208 10214 10223 10235 10242 10251 10261 10267 10274 10282 10292 10306 10323 10343 10364 10385 10404 10419 10427 10436 10445 10453 10460 10463 10465 10471 10473 10477 10477 10477 10478 10476 10474
10052 10065 10089 10109 10119 10129 10144 10159 10162 10174 10192 10200 10208 10219 10232 10238 10245 10255 10263 10268 10276 10286 10299 10313 10335 10353 10374 10393 10405 10412 10426 10431 10440 10446 10445 10452 10454 10458 10459 10461 10461 10460 10457 10455
10046 10067 10090 10108 10114 10131 10146 10150 10159 10173 10188 10197 10204 10215 10225 10233 10242 10252 10255 10261 10271 10281 10292 10306 10324 10342 10361 10378 10389 10399 10409 10419 10422 10422 10431 10438 10440 10444 10444 10444 10443 10442 10440 10436
10053 10073 10087 10100 10108 10130 10139 10146 10159 10171 10183 10195 10205 10214 10221 10228 10237 10244 10248 10255 10265 10276 10288 10299 10312 10331 10347 10361 10373 10383 10390 10397 10404 10412 10418 10422 10422 10423 10425 10425 10422 10419 10417 10414
10045 10060 10074 10087 10104 10122 10130 10144 10155 10167 10178 10192 10202 10212 10217 10224 10232 10238 10243 10251 10260 10269 10280 10291 10305 10320 10333 10346 10356 10365 10375 10384 10389 10393 10393 10398 10401 10403 10402 10401 10399 10397 10396 10390
10041 10053 10069 10084 10102 10117 10132 10146 10153 10164 10175 10190 10200 10209 10216 10222 10229 10234 10239 10246 10255 10265 10275 10285 10296 10307 10319 10330 10337 10346 10357 10365 10370 10372 10373 10380 10381 10381 10379 10377 10377 10378 10375 10373